Location: *
(43.0409°N, 0.1694°E)
Time: 12:20:23
(UTC+00:00)

Meteor 1-14 Rocket - Pass Details

Date: 03 October 2023
Orbit: 833 x 919 km, 81.3° (Epoch: 01 December)

Event Time Altitude Azimuth Distance (km) Brightness Sun altitude
Rises 03:25:57 0° 348° (NNW) 3,569 7.6 -28.1°
Reaches altitude 10° 03:28:26 10° 348° (NNW) 2,623 6.9 -27.7°
Maximum altitude 03:34:27 82° 263° (W) 931 4.2 -26.6°
Enters shadow 03:36:55 38° 179° (S) 1,372 5.1 -26.2°
